EW3585 Weather Reports


Display with metric or nautical units.
time (UTC)temp
F
wind
direction
speed
MPH
gust
MPH
rain 1hr
in
rain 24hr
in
rain mn
in
humidity
%
barometer
mb
20260508225037 67 211 1.0 4.0 0.00 0.00 0.00 71 1016.1
20260508224624 67 208 1.0 4.0 0.00 0.00 0.00 72 1016.1
20260508224026 67 209 1.0 5.0 0.00 0.00 0.00 71 1016.0
20260508223538 67 209 2.0 5.0 0.00 0.00 0.00 70 1016.1
20260508223054 67 202 2.0 4.0 0.00 0.00 0.00 70 1016.0
20260508222531 67 191 2.0 4.0 0.00 0.00 0.00 69 1016.3
20260508222027 68 203 2.0 4.0 0.00 0.00 0.00 69 1016.0
20260508221628 68 193 2.0 6.0 0.00 0.00 0.00 68 1016.0
20260508221018 68 183 2.0 6.0 0.00 0.00 0.00 69 1015.9
20260508220524 68 202 2.0 5.0 0.00 0.00 0.00 68 1016.0
20260508220139 68 202 2.0 5.0 0.00 0.00 0.00 66 1016.0
20260508215521 68 201 2.0 5.0 0.00 0.00 0.00 66 1015.9
20260508215031 68 177 2.0 5.0 0.00 0.00 0.00 66 1016.1
20260508214634 68 251 2.0 5.0 0.00 0.00 0.00 65 1016.1
20260508214032 68 209 2.0 4.0 0.00 0.00 0.00 66 1016.3
20260508213514 68 206 2.0 5.0 0.00 0.00 0.00 66 1016.0
20260508213103 68 209 2.0 5.0 0.00 0.00 0.00 64 1016.0
20260508212529 68 194 2.0 5.0 0.00 0.00 0.00 64 1016.0
20260508212023 69 205 2.0 4.0 0.00 0.00 0.00 64 1016.0
20260508211613 69 200 2.0 4.0 0.00 0.00 0.00 63 1016.0
20260508211020 69 234 2.0 4.0 0.00 0.00 0.00 64 1016.1
20260508210542 69 235 2.0 7.0 0.00 0.00 0.00 64 1016.3
20260508210148 69 220 2.0 7.0 0.00 0.00 0.00 63 1016.4
20260508205533 69 180 3.0 7.0 0.00 0.00 0.00 64 1016.1
20260508205042 69 202 2.0 5.0 0.00 0.00 0.00 64 1016.3
20260508204628 69 211 2.0 4.0 0.00 0.00 0.00 62 1016.1
20260508204029 69 211 1.0 4.0 0.00 0.00 0.00 63 1016.2
20260508203538 69 225 2.0 4.0 0.00 0.00 0.00 61 1016.1
20260508203131 69 258 2.0 5.0 0.00 0.00 0.00 62 1016.1
20260508202542 69 197 2.0 5.0 0.00 0.00 0.00 63 1016.2
20260508202027 69 182 2.0 7.0 0.00 0.00 0.00 62 1016.4
20260508201623 69 213 3.0 7.0 0.00 0.00 0.00 61 1016.6
20260508201033 69 194 3.0 7.0 0.00 0.00 0.00 60 1016.5
20260508200517 70 281 2.0 6.0 0.00 0.00 0.00 60 1016.6
20260508200139 70 189 3.0 6.0 0.00 0.00 0.00 60 1016.7
20260508195522 70 152 2.0 6.0 0.00 0.00 0.00 62 1016.6
20260508195026 70 216 1.0 6.0 0.00 0.00 0.00 63 1016.6
20260508194654 70 195 1.0 4.0 0.00 0.00 0.00 60 1016.7
20260508194020 69 205 2.0 7.0 0.00 0.00 0.00 61 1017.0
20260508193516 69 201 3.0 7.0 0.00 0.00 0.00 60 1017.2
20260508193137 70 174 3.0 7.0 0.00 0.00 0.00 58 1017.2
20260508192547 70 168 2.0 5.0 0.00 0.00 0.00 60 1017.4
20260508192043 70 196 1.0 4.0 0.00 0.00 0.00 58 1017.4
20260508191632 70 314 2.0 5.0 0.00 0.00 0.00 58 1017.4
20260508191037 70 205 2.0 5.0 0.00 0.00 0.00 58 1017.5
20260508190545 70 194 0.0 5.0 0.00 0.00 0.00 58 1017.6
20260508190159 70 194 2.0 5.0 0.00 0.00 0.00 56 1017.7
20260508185520 70 194 2.0 5.0 0.00 0.00 0.00 56 1017.6
20260508185027 70 193 3.0 6.0 0.00 0.00 0.00 56 1017.6
20260508184652 70 162 2.0 8.0 0.00 0.00 0.00 58 1017.6
20260508184041 70 122 1.0 10.0 0.00 0.00 0.00 57 1017.7
20260508183521 70 201 3.0 10.0 0.00 0.00 0.00 56 1017.9
20260508183153 69 169 4.0 10.0 0.00 0.00 0.00 60 1018.1
20260508182527 69 296 3.0 10.0 0.00 0.00 0.00 59 1018.2
20260508182025 69 327 2.0 6.0 0.00 0.00 0.00 57 1018.0
20260508181634 69 86 2.0 8.0 0.00 0.00 0.00 57 1018.2
20260508181039 69 207 4.0 9.0 0.00 0.00 0.00 57 1018.2
20260508180547 69 280 2.0 6.0 0.00 0.00 0.00 58 1018.2
20260508180153 69 151 1.0 5.0 0.00 0.00 0.00 60 1018.5
20260508175525 68 271 2.0 5.0 0.00 0.00 0.00 60 1018.4
20260508175031 68 236 1.0 7.0 0.00 0.00 0.00 59 1018.6
20260508174657 69 236 3.0 8.0 0.00 0.00 0.00 62 1018.6
20260508174022 69 236 3.0 8.0 0.00 0.00 0.00 62 1018.6
20260508173522 68 218 2.0 7.0 0.00 0.00 0.00 61 1018.9
20260508173158 68 258 2.0 7.0 0.00 0.00 0.00 64 1018.9
20260508172526 68 229 1.0 9.0 0.00 0.00 0.00 61 1019.0
20260508172021 68 191 3.0 8.0 0.00 0.00 0.00 65 1019.1
20260508171653 67 188 2.0 5.0 0.00 0.00 0.00 62 1019.1
20260508171051 67 174 1.0 5.0 0.00 0.00 0.00 61 1019.1
20260508170543 67 213 2.0 7.0 0.00 0.00 0.00 64 1019.2
20260508170210 67 271 3.0 7.0 0.00 0.00 0.00 61 1019.2
20260508165541 67 213 3.0 10.0 0.00 0.00 0.00 61 1019.4
20260508165020 67 252 5.0 10.0 0.00 0.00 0.00 62 1019.4
20260508164610 67 263 3.0 9.0 0.00 0.00 0.00 63 1019.6
20260508164034 67 213 3.0 9.0 0.00 0.00 0.00 63 1019.6
20260508163536 67 177 3.0 6.0 0.00 0.00 0.00 63 1019.6
20260508163131 67 185 2.0 6.0 0.00 0.00 0.00 60 1019.6
20260508162521 67 174 2.0 8.0 0.00 0.00 0.00 63 1019.6
20260508162038 67 173 3.0 8.0 0.00 0.00 0.00 64 1019.7
20260508161637 66 157 3.0 8.0 0.00 0.00 0.00 64 1019.8
20260508161024 66 182 4.0 8.0 0.00 0.00 0.00 64 1019.9
20260508160530 66 173 3.0 10.0 0.00 0.00 0.00 62 1019.8
20260508160132 66 135 4.0 10.0 0.00 0.00 0.00 61 1019.8
20260508155542 66 127 3.0 10.0 0.00 0.00 0.00 64 1019.8
20260508155044 66 149 3.0 10.0 0.00 0.00 0.00 64 1019.8
20260508154642 65 182 2.0 7.0 0.00 0.00 0.00 66 1020.0
20260508154027 65 152 3.0 8.0 0.00 0.00 0.00 66 1020.1
20260508153528 65 201 4.0 8.0 0.00 0.00 0.00 67 1020.2
20260508153130 65 198 3.0 8.0 0.00 0.00 0.00 66 1020.3
20260508152530 65 233 1.0 4.0 0.00 0.00 0.00 68 1020.3
20260508152027 64 233 1.0 7.0 0.00 0.00 0.00 71 1020.3
20260508151657 64 220 2.0 7.0 0.00 0.00 0.00 68 1020.3
20260508151039 64 190 3.0 6.0 0.00 0.00 0.00 69 1020.3
20260508150524 64 200 3.0 6.0 0.00 0.00 0.00 71 1020.4
20260508150221 63 191 2.0 5.0 0.00 0.00 0.00 72 1020.4
20260508145528 63 211 2.0 6.0 0.00 0.00 0.00 72 1020.4
20260508145033 63 190 3.0 7.0 0.00 0.00 0.00 72 1020.3
20260508144657 63 192 3.0 7.0 0.00 0.00 0.00 73 1020.2
20260508144029 62 190 2.0 6.0 0.00 0.00 0.00 73 1020.3
20260508143543 62 216 3.0 6.0 0.00 0.00 0.00 74 1020.2
20260508143201 63 206 3.0 6.0 0.00 0.00 0.00 74 1020.2
20260508142532 63 215 1.0 5.0 0.00 0.00 0.00 73 1020.1
20260508142020 63 216 2.0 5.0 0.00 0.00 0.00 72 1020.3
20260508141635 62 123 1.0 6.0 0.00 0.00 0.00 74 1020.3
20260508141019 62 179 1.0 6.0 0.00 0.00 0.00 74 1020.2
20260508140518 62 153 2.0 6.0 0.00 0.00 0.00 75 1020.4
20260508140151 61 75 2.0 6.0 0.00 0.00 0.00 74 1020.5
20260508135532 61 113 2.0 6.0 0.00 0.04 0.00 75 1020.7
20260508135037 61 62 1.0 4.0 0.00 0.04 0.00 74 1020.6
20260508134636 61 39 1.0 4.0 0.00 0.04 0.00 74 1020.6
20260508134042 61 126 0.0 2.0 0.00 0.04 0.00 75 1020.5
20260508133527 60 126 0.0 4.0 0.00 0.04 0.00 77 1020.5
20260508133155 59 107 1.0 4.0 0.00 0.04 0.00 79 1020.5
20260508132532 59 105 1.0 4.0 0.00 0.04 0.00 80 1020.6
20260508132043 59 127 2.0 4.0 0.00 0.04 0.00 79 1020.6
20260508131637 59 94 1.0 4.0 0.00 0.04 0.00 82 1020.7
20260508131018 58 153 0.0 3.0 0.00 0.04 0.00 85 1020.6
20260508130521 58 134 1.0 3.0 0.00 0.04 0.00 86 1020.5
20260508130158 58 134 0.0 3.0 0.00 0.04 0.00 85 1020.4
20260508125527 57 134 1.0 3.0 0.00 0.14 0.00 86 1020.3
20260508125030 57 134 1.0 3.0 0.00 0.14 0.00 88 1020.2
20260508124638 57 43 0.0 2.0 0.00 0.14 0.00 93 1020.2
20260508124050 56 5 0.0 2.0 0.00 0.14 0.00 93 1020.2
20260508123520 56 5 0.0 2.0 0.00 0.14 0.00 94 1019.9
20260508123137 56 5 0.0 2.0 0.00 0.14 0.00 95 1020.0
20260508122518 56 5 0.0 2.0 0.00 0.14 0.00 96 1019.7
20260508122018 55 17 0.0 0.0 0.00 0.14 0.00 97 1019.8
20260508121648 55 17 0.0 0.0 0.00 0.14 0.00 98 1019.8
20260508121037 55 17 0.0 0.0 0.00 0.14 0.00 98 1019.7
20260508120532 54 17 0.0 0.0 0.00 0.14 0.00 99 1019.7
20260508120145 54 17 0.0 0.0 0.00 0.14 0.00 99 1019.4
20260508115536 54 17 0.0 0.0 0.00 0.32 0.00 99 1019.5
20260508115041 53 17 0.0 0.0 0.00 0.32 0.00 99 1019.4
20260508114649 53 17 0.0 0.0 0.00 0.32 0.00 99 1019.5
20260508114023 53 17 0.0 0.0 0.00 0.32 0.00 98 1019.3
20260508113523 53 17 0.0 0.0 0.00 0.32 0.00 98 1019.1
20260508113109 52 17 0.0 0.0 0.00 0.32 0.00 98 1019.0
20260508112528 52 17 0.0 0.0 0.00 0.32 0.00 98 1019.0
20260508112028 52 17 0.0 2.0 0.00 0.32 0.00 98 1018.7
20260508111556 52 17 0.0 2.0 0.00 0.32 0.00 98 1018.9
20260508111023 52 17 0.0 2.0 0.00 0.32 0.00 98 1018.5
20260508110534 52 328 0.0 0.0 0.00 0.32 0.00 98 1018.3
20260508110154 52 328 0.0 0.0 0.00 0.32 0.00 98 1018.2
20260508105541 52 328 0.0 0.0 0.00 0.42 0.00 98 1018.2
20260508105034 52 328 0.0 0.0 0.00 0.42 0.00 98 1018.1
20260508104639 52 328 0.0 0.0 0.00 0.42 0.00 98 1017.9
20260508104042 52 328 0.0 0.0 0.00 0.42 0.00 98 1017.8
20260508103533 52 328 0.0 0.0 0.00 0.42 0.00 97 1018.0
20260508103139 52 328 0.0 0.0 0.00 0.42 0.00 97 1017.8
20260508102537 52 328 0.0 0.0 0.00 0.42 0.00 97 1017.8
20260508102038 52 328 0.0 0.0 0.00 0.42 0.00 97 1017.8
20260508101619 52 328 0.0 0.0 0.00 0.42 0.00 97 1017.7
20260508101022 52 328 0.0 0.0 0.00 0.42 0.00 97 1017.6
20260508100537 52 328 0.0 0.0 0.00 0.42 0.00 97 1017.5
20260508100142 52 328 0.0 0.0 0.00 0.42 0.00 97 1017.6
20260508095545 52 328 0.0 0.0 0.00 0.45 0.00 97 1017.5
20260508095050 52 328 0.0 2.0 0.00 0.45 0.00 97 1017.3
20260508094643 52 328 0.0 2.0 0.00 0.45 0.00 98 1017.4
20260508094024 52 328 0.0 2.0 0.00 0.45 0.00 98 1017.1
20260508093515 52 328 0.0 0.0 0.00 0.45 0.00 97 1017.2
20260508093127 52 328 0.0 0.0 0.00 0.45 0.00 97 1017.2
20260508092526 52 328 0.0 0.0 0.00 0.45 0.00 97 1017.1
20260508092036 51 328 0.0 0.0 0.00 0.45 0.00 97 1017.3
20260508091641 51 328 0.0 0.0 0.00 0.45 0.00 96 1017.1
20260508091033 51 328 0.0 0.0 0.00 0.45 0.00 96 1017.0
20260508090546 51 328 0.0 2.0 0.00 0.45 0.00 95 1017.0
20260508090139 51 328 0.0 2.0 0.00 0.45 0.00 95 1017.1
20260508085533 51 328 0.0 2.0 0.00 0.52 0.00 94 1017.1
20260508085027 51 328 0.0 2.0 0.00 0.52 0.00 94 1017.0
20260508084623 52 328 0.0 2.0 0.00 0.52 0.00 95 1016.8
20260508084043 52 328 0.0 2.0 0.00 0.52 0.00 94 1016.7
20260508083529 52 328 0.0 2.0 0.00 0.52 0.00 94 1016.6
20260508083144 51 328 0.0 2.0 0.00 0.52 0.00 93 1016.8
20260508082521 52 328 0.0 2.0 0.00 0.52 0.00 92 1016.7
20260508082028 52 328 0.0 2.0 0.00 0.52 0.00 92 1016.7
20260508081649 52 328 0.0 2.0 0.00 0.52 0.00 92 1016.9
20260508081019 52 328 1.0 2.0 0.00 0.52 0.00 93 1016.7
20260508080531 52 328 0.0 2.0 0.00 0.52 0.00 93 1016.7
20260508080112 52 328 0.0 1.0 0.00 0.52 0.00 93 1016.6
20260508075527 52 328 0.0 2.0 0.00 0.66 0.00 92 1016.5
20260508075042 52 328 0.0 2.0 0.00 0.66 0.00 91 1016.8
20260508074640 52 328 0.0 2.0 0.00 0.66 0.00 91 1016.7
20260508074042 53 328 0.0 2.0 0.00 0.66 0.00 90 1016.7
20260508073524 53 328 0.0 2.0 0.00 0.66 0.00 90 1016.9
20260508073145 53 328 0.0 2.0 0.00 0.66 0.00 90 1016.6
20260508072519 53 328 1.0 2.0 0.00 0.66 0.00 90 1016.7
20260508072032 53 328 0.0 2.0 0.00 0.66 0.00 90 1016.6
20260508071650 53 328 0.0 3.0 0.00 0.66 0.00 91 1016.6
20260508071015 53 328 1.0 3.0 0.00 0.66 0.00 91 1016.6
20260508070534 53 328 1.0 3.0 0.00 0.66 0.00 92 1016.6
20260508070154 53 328 1.0 3.0 0.00 0.66 0.00 92 1016.5
20260508065546 53 328 0.0 2.0 0.00 0.77 0.00 90 1016.7
20260508065017 53 328 0.0 2.0 0.00 0.77 0.00 90 1016.7
20260508064643 54 328 0.0 2.0 0.00 0.77 0.00 90 1016.4
20260508064027 53 328 0.0 2.0 0.00 0.77 0.00 90 1016.6
20260508063531 54 328 0.0 2.0 0.00 0.77 0.00 89 1016.5
20260508063148 54 328 0.0 1.0 0.00 0.77 0.00 88 1016.4
20260508062535 55 328 0.0 3.0 0.00 0.77 0.00 87 1016.5
20260508062036 55 328 0.0 3.0 0.00 0.77 0.00 87 1016.3
20260508061651 55 314 0.0 2.0 0.00 0.77 0.00 87 1016.5
20260508061028 55 314 0.0 2.0 0.00 0.77 0.00 87 1016.4
20260508060531 55 314 0.0 2.0 0.00 0.77 0.00 87 1016.5
20260508060210 55 314 0.0 2.0 0.00 0.77 0.00 87 1016.6
20260508055527 56 313 0.0 4.0 0.00 1.00 0.00 87 1016.5
20260508055035 56 313 1.0 6.0 0.00 1.00 0.00 87 1016.5
20260508054700 56 313 3.0 6.0 0.00 1.00 0.00 87 1016.3
20260508054031 56 306 3.0 6.0 0.00 1.00 0.00 87 1016.5
20260508053527 56 310 2.0 5.0 0.00 1.00 0.00 87 1016.6
20260508053152 56 309 1.0 3.0 0.00 1.00 0.00 87 1016.6
20260508052517 56 309 1.0 4.0 0.00 1.00 0.00 87 1016.6
20260508052026 56 309 2.0 4.0 0.00 1.00 0.00 87 1016.6
20260508051657 56 309 1.0 4.0 0.00 1.00 0.00 87 1016.5
20260508051042 56 313 1.0 2.0 0.00 1.00 0.00 87 1016.6
20260508050525 56 313 1.0 2.0 0.00 1.00 0.00 87 1016.7
20260508050203 57 313 1.0 2.0 0.00 1.00 0.00 85 1016.4
20260508045523 57 313 1.0 3.0 0.00 1.29 0.00 85 1016.5
20260508045032 57 313 1.0 4.0 0.00 1.29 0.00 85 1016.3
20260508044651 57 311 1.0 4.0 0.00 1.29 0.00 86 1016.3
20260508044023 57 312 1.0 4.0 0.00 1.29 0.00 86 1016.1
20260508043543 57 326 2.0 4.0 0.00 1.29 0.00 85 1016.2
20260508043154 58 334 1.0 3.0 0.00 1.29 0.00 85 1016.3
20260508042534 58 338 1.0 5.0 0.00 1.29 0.00 84 1016.1
20260508042034 58 338 1.0 5.0 0.00 1.29 0.00 84 1016.2
20260508041649 58 337 2.0 5.0 0.00 1.29 0.00 84 1016.1
20260508041027 58 348 2.0 4.0 0.00 1.29 0.00 83 1016.2
20260508040525 58 309 2.0 4.0 0.00 1.29 0.00 83 1016.1
20260508040208 58 323 1.0 4.0 0.00 1.29 0.00 82 1016.1
20260508035520 59 325 1.0 4.0 0.00 1.33 1.29 82 1016.0
20260508035037 59 325 2.0 5.0 0.00 1.33 1.29 82 1016.0
20260508034640 59 323 3.0 7.0 0.00 1.33 1.29 81 1015.8
20260508034046 59 303 3.0 7.0 0.00 1.33 1.29 81 1015.9
20260508033542 59 327 3.0 7.0 0.00 1.33 1.29 81 1016.1
20260508033136 60 323 2.0 6.0 0.00 1.33 1.29 81 1016.0
20260508032520 60 329 2.0 6.0 0.00 1.33 1.29 81 1016.1
20260508032021 60 316 2.0 6.0 0.00 1.33 1.29 80 1016.1
20260508031646 60 311 3.0 8.0 0.00 1.33 1.29 80 1016.0
20260508031028 61 309 4.0 8.0 0.00 1.33 1.29 78 1016.1
20260508030538 61 312 4.0 8.0 0.00 1.33 1.29 78 1016.0
20260508030128 61 309 3.0 9.0 0.00 1.33 1.29 78 1015.9
20260508025529 61 342 4.0 9.0 0.00 1.35 1.29 78 1015.7
20260508025034 61 314 4.0 9.0 0.00 1.35 1.29 77 1015.8
20260508024717 61 320 2.0 6.0 0.00 1.35 1.29 77 1015.7
20260508024038 61 313 2.0 6.0 0.00 1.35 1.29 77 1015.7
20260508023526 62 325 2.0 5.0 0.00 1.35 1.29 76 1015.8
20260508023152 62 355 1.0 5.0 0.00 1.35 1.29 76 1015.5
20260508022517 62 347 2.0 6.0 0.00 1.35 1.29 75 1015.5
20260508022028 62 344 3.0 6.0 0.00 1.35 1.29 75 1015.5
20260508021649 62 322 3.0 10.0 0.00 1.35 1.29 74 1015.4
20260508021029 63 321 4.0 10.0 0.00 1.35 1.29 74 1015.3
20260508020534 63 327 3.0 10.0 0.00 1.35 1.29 74 1015.3
20260508020125 63 321 4.0 11.0 0.00 1.35 1.29 74 1015.1
20260508015531 63 319 5.0 11.0 0.00 1.43 1.29 73 1015.0
20260508015032 63 350 3.0 11.0 0.00 1.43 1.29 73 1015.1
20260508014642 63 340 5.0 11.0 0.00 1.43 1.29 73 1014.9
20260508014021 63 339 5.0 9.0 0.00 1.43 1.29 73 1014.9
20260508013533 63 326 5.0 11.0 0.00 1.43 1.29 73 1014.7
20260508013149 64 355 6.0 11.0 0.00 1.43 1.29 73 1014.7
20260508012542 64 334 6.0 12.0 0.00 1.43 1.29 72 1014.4
20260508012027 64 337 5.0 12.0 0.00 1.43 1.29 72 1014.4
20260508011635 64 330 7.0 12.0 0.00 1.43 1.29 72 1014.2
20260508011044 64 308 7.0 12.0 0.00 1.43 1.29 72 1014.1
20260508010541 65 329 5.0 11.0 0.00 1.43 1.29 72 1014.0
20260508010139 65 328 5.0 11.0 0.00 1.43 1.29 71 1014.0
20260508005544 65 326 5.0 12.0 0.00 2.21 1.29 70 1013.8
20260508005023 65 338 4.0 12.0 0.00 2.21 1.29 70 1013.9
20260508004625 66 346 6.0 17.0 0.00 2.21 1.29 70 1014.0
20260508004027 66 360 7.0 17.0 0.00 2.21 1.29 69 1013.8
20260508003542 66 321 9.0 17.0 0.00 2.21 1.29 69 1013.8
20260508003136 66 338 8.0 17.0 0.00 2.21 1.29 69 1013.8
20260508002542 66 333 7.0 14.0 0.00 2.21 1.29 70 1013.5
20260508002022 67 308 8.0 15.0 0.00 2.21 1.29 67 1013.8
20260508001634 67 329 8.0 14.0 0.00 2.21 1.29 67 1013.4
20260508001028 67 337 9.0 14.0 0.00 2.21 1.29 67 1013.3
20260508000526 67 316 9.0 16.0 0.00 2.21 1.29 67 1013.2
20260508000109 68 344 9.0 16.0 0.00 2.21 1.29 66 1013.3
20260507235544 69 327 7.0 15.0 0.00 2.25 1.29 66 1013.2
20260507235045 69 319 7.0 15.0 0.00 2.25 1.29 65 1013.2
20260507234644 69 327 8.0 15.0 0.00 2.25 1.29 64 1013.1
20260507234020 69 318 8.0 18.0 0.00 2.25 1.29 65 1013.0
20260507233534 70 333 9.0 18.0 0.00 2.25 1.29 64 1013.2
20260507233143 70 355 7.0 13.0 0.00 2.25 1.29 65 1012.9
20260507232527 71 346 8.0 16.0 0.00 2.25 1.29 67 1012.7
20260507232023 71 339 9.0 16.0 0.00 2.25 1.29 66 1012.5
20260507231649 71 304 8.0 16.0 0.00 2.25 1.29 66 1012.4
20260507231025 72 320 9.0 16.0 0.00 2.25 1.29 65 1012.3
20260507230539 72 303 8.0 15.0 0.00 2.25 1.29 65 1012.3
20260507230205 72 347 8.0 15.0 0.00 2.25 1.29 65 1012.4
20260507225541 72 327 9.0 18.0 0.00 2.25 1.29 63 1012.2